[[{"header":{"parameterUnit":"m.s-1","parameterCategory":2,"la1":30.2991,"la2":30.254,"lo1":-89.0895,"lo2":-89.0444,"dy":0.0017,"dx":0.0017,"nx":28,"ny":28,"refTime":"2025-08-21T03:00:00:Z","depth":"0","parameterNumber":2,"parameterNumberName":"U-component_of_CURRENTS"},"data":[0,0,0,0,0,0,0,0,0,0,0,0,0,0,0,0,0,0,0,0,0,0,0,0,0,0,0,0,0,0,0,0,0,0,0,0,0,0,0,0,0,0,0,0,0,0,0,0,0,0,0,0,0,0,0,0,0,0,0.3087,0.3087,0,0.3068,0.3068,0.3068,0.304,0.304,0.304,0.304,0.3036,0.3037,0.3037,0,0,0,0,0,0,0,0,0,0,0,0,0,0.3117,0.3117,0.3087,0.3087,0.3087,0.3068,0.3068,0.3068,0.3041,0.304,0.304,0.3039,0.3036,0.3037,0.3037,0,0,0,0,0,0,0,0,0,0,0,0,0,0.3101,0.3117,0.3087,0.3072,0.3071,0.3068,0.3068,0.3067,0.3041,0.304,0.304,0.3039,0.3036,0.3037,0.3037,0.3049,0,0,0.3038,0.3038,0,0,0,0,0,0,0,0,0.3102,0.3099,0.3075,0.3073,0.3072,0.3058,0.3078,0.3063,0.3041,0.3051,0.3039,0.3039,0.3046,0.3046,0.3041,0.3049,0.3049,0.3038,0.3038,0.3038,0.3038,0,0,0,0,0,0,0,0.3103,0.31,0.3078,0.3075,0.3073,0.3073,0.307,0.3074,0.3051,0.305,0.3048,0.3048,0.3045,0.3041,0.3041,0.3049,0.3038,0.3038,0.3039,0.3039,0.313,0.3132,0,0,0,0,0,0,0.3108,0.3101,0.3079,0.3078,0.3087,0.3073,0.3069,0.3061,0.305,0.3048,0.3049,0.3047,0.304,0.304,0.3041,0.3111,0.3038,0.3039,0.3039,0.3128,0.3131,0.3133,0,0,0,0,0,0,0.3108,0.3105,0.308,0.3091,0.3088,0.3073,0.3064,0.3061,0.306,0.305,0.3048,0.3051,0.304,0.304,0.3055,0.3108,0.3039,0.3039,0.3125,0.3129,0.3132,0.3215,0,0,0,0,0,0,0.3109,0.3106,0.3105,0.3091,0.3087,0.3083,0.3065,0.3061,0.3061,0.3059,0.3051,0.305,0.304,0.3054,0.3055,0.3107,0.3039,0.3123,0.3127,0.3131,0.3209,0.3221,0.323,0,0,0,0,0,0.311,0.311,0.3105,0.3103,0.3086,0.3084,0.3082,0.3069,0.3062,0.3065,0.3064,0.305,0.3082,0.3056,0.3056,0.311,0.3121,0.3126,0.3131,0.3205,0.3219,0.323,0,0,0,0,0,0,0.3126,0.3107,0.3101,0.3096,0.3094,0.308,0.3082,0.3076,0.3076,0.3076,0.3064,0.3063,0.3101,0.3092,0.3063,0.3151,0.3106,0.3111,0.3162,0.3175,0.3185,0.3211,0.304,0,0,0,0,0,0.313,0.3122,0.3111,0.311,0.3109,0.3098,0.3097,0.3091,0.3088,0.3087,0.3081,0.3092,0.3123,0.3135,0.3144,0.3184,0.3215,0.3225,0.3235,0.3244,0.3267,0.338,0.3403,0.315,0.315,0.315,0,0,0.3135,0.3126,0.3121,0.3113,0.3108,0.3121,0.3096,0.3099,0.3123,0.3089,0.3114,0.3119,0.3139,0.3186,0.3205,0.3185,0.3328,0.325,0.3258,0.3276,0.3388,0.3413,0.3435,0.3153,0.3152,0.3152,0,0,0.3146,0.3136,0.3134,0.3137,0.3136,0.3138,0.3143,0.3134,0.3144,0.3166,0.3166,0.3209,0.3219,0.3266,0.329,0.3368,0.3375,0.3366,0.3446,0.3556,0.3578,0.3598,0.3649,0.3673,0.3378,0.3378,0.3378,0,0.3159,0.3152,0.3137,0.3145,0.3159,0.3151,0.3171,0.3185,0.3186,0.3224,0.3184,0.3273,0.3273,0.3389,0.3409,0.3396,0.3434,0.3394,0.3572,0.3592,0.3611,0.3659,0.3684,0.3382,0.3382,0.3381,0.3381,0,0.3167,0.3171,0.3175,0.3186,0.3203,0.3216,0.3238,0.3264,0.3274,0.3302,0.3391,0.34,0.3466,0.3476,0.3459,0.3607,0.358,0.3567,0.3541,0.3642,0.3685,0.371,0.3389,0.3387,0.3386,0.3385,0,0,0.3172,0.3179,0.3181,0.3205,0.3226,0.3248,0.3306,0.3373,0.3445,0.3459,0.3563,0.3615,0.3631,0.3661,0.3665,0.3749,0.3893,0.3713,0.3717,0.3765,0.4104,0.3983,0.3997,0.3915,0.392,0.3924,0.4071,0,0.3187,0.3206,0.3215,0.3268,0.3287,0.3324,0.3392,0.3461,0.3514,0.3609,0.3673,0.3755,0.3703,0.3743,0.3827,0.3884,0.3967,0.3852,0.3997,0.4001,0.3884,0.4026,0.3792,0.3896,0.4096,0.41,0.4103,0,0.3183,0.3207,0.3242,0.3326,0.3344,0.3387,0.3515,0.3578,0.3718,0.3763,0.3867,0.3903,0.4038,0.3964,0.4145,0.4073,0.41,0.4128,0.4135,0.4016,0.3928,0.3832,0.3934,0.3827,0.4141,0.4138,0.4135,0,0.3174,0.3231,0.3264,0.3283,0.3373,0.3429,0.35,0.3629,0.3715,0.3871,0.3948,0.4094,0.4177,0.4262,0.4291,0.4244,0.4467,0.4414,0.4332,0.4321,0.4149,0.4114,0.4168,0.4557,0.4557,0.4556,0.4556,0,0.3168,0.3201,0.3266,0.3284,0.3386,0.3449,0.358,0.3667,0.3817,0.394,0.4031,0.4144,0.426,0.4373,0.4382,0.4436,0.4551,0.4385,0.438,0.4164,0.4131,0.4046,0.3992,0.4562,0.4561,0.456,0.4559,0,0.3138,0.316,0.3226,0.3332,0.3369,0.3451,0.3608,0.3707,0.3841,0.4002,0.4057,0.4239,0.4382,0.4459,0.4606,0.4548,0.4467,0.4585,0.4289,0.4245,0.4028,0.3985,0.3918,0.3812,0.4539,0.4537,0.4535,0,0.3116,0.3137,0.3252,0.3304,0.335,0.347,0.3552,0.3698,0.3793,0.4043,0.4115,0.4313,0.4408,0.4567,0.4517,0.4535,0.4427,0.432,0.4191,0.4022,0.3974,0.3832,0.3738,0.399,0.3984,0.3979,0.3976,0,0.3125,0.3162,0.3231,0.3314,0.3395,0.3487,0.3605,0.367,0.3847,0.3967,0.4121,0.4222,0.4357,0.4282,0.4306,0.4277,0.4081,0.4221,0.4156,0.3652,0.3398,0.3286,0.3856,0.3933,0.3938,0.3941,0.3943,0.3945,0.3156,0.3201,0.3279,0.3348,0.3429,0.3474,0.3498,0.3611,0.3719,0.3829,0.3998,0.4037,0.4057,0.4048,0.4003,0.3755,0.3797,0.3607,0.3601,0.35,0.3293,0.374,0.3738,0.3741,0.3744,0.3746,0.3748,0,0.3189,0.3226,0.3304,0.3366,0.3392,0.3439,0.3507,0.3483,0.3519,0.3634,0.3703,0.3642,0.3561,0.3539,0.333,0.3156,0.3012,0.3072,0.2837,0.2803,0.3303,0.3172,0.2913,0.2914,0.2914,0.2914,0.2914,0.2914,0.3221,0.3267,0.3275,0.3294,0.3314,0.3272,0.3258,0.323,0.3251,0.3188,0.3114,0.3136,0.318,0.3063,0.2824,0.2737,0.2554,0.2383,0.2469,0.2824,0.2873,0.292,0.2787,0.2452,0.2451,0.1811,0.1806,0.1802]},{"header":{"parameterUnit":"m.s-1","parameterCategory":2,"la1":30.2991,"la2":30.254,"lo1":-89.0895,"lo2":-89.0444,"dy":0.0017,"dx":0.0017,"nx":28,"ny":28,"refTime":"2025-08-21T03:00:00:Z","depth":"0","parameterNumber":3,"parameterNumberName":"V-component_of_CURRENTS"},"data":[0,0,0,0,0,0,0,0,0,0,0,0,0,0,0,0,0,0,0,0,0,0,0,0,0,0,0,0,0,0,0,0,0,0,0,0,0,0,0,0,0,0,0,0,0,0,0,0,0,0,0,0,0,0,0,0,0,0,0.0331,0.0331,0,0.0292,0.0291,0.029,0.0262,0.0262,0.0262,0.0262,0.0218,0.0217,0.0216,0,0,0,0,0,0,0,0,0,0,0,0,0,0.0333,0.0333,0.0332,0.0331,0.0331,0.0292,0.0291,0.029,0.0262,0.0262,0.0262,0.0262,0.0219,0.0218,0.0216,0,0,0,0,0,0,0,0,0,0,0,0,0,0.0316,0.0333,0.0332,0.0313,0.0311,0.0292,0.0291,0.029,0.0262,0.0262,0.0262,0.0262,0.0219,0.0218,0.0216,0.0211,0,0,0.0211,0.0211,0,0,0,0,0,0,0,0,0.0317,0.0315,0.0316,0.0314,0.0312,0.0282,0.0275,0.0264,0.0262,0.0279,0.0262,0.0261,0.024,0.0237,0.0229,0.0209,0.0207,0.0211,0.021,0.021,0.0209,0,0,0,0,0,0,0,0.0318,0.0317,0.0315,0.0315,0.0313,0.0289,0.0287,0.0273,0.0261,0.0278,0.0276,0.0273,0.0239,0.023,0.0227,0.0206,0.0211,0.021,0.0209,0.0208,0.0191,0.0191,0,0,0,0,0,0,0.0328,0.0318,0.0316,0.0314,0.0315,0.0289,0.0287,0.0291,0.0261,0.0256,0.0274,0.0272,0.0233,0.0229,0.0226,0.0241,0.021,0.0208,0.0207,0.019,0.0191,0.0191,0,0,0,0,0,0,0.0328,0.0328,0.0318,0.0315,0.0312,0.029,0.0295,0.0291,0.0285,0.0258,0.0253,0.0273,0.0233,0.0228,0.0219,0.0238,0.0208,0.0206,0.019,0.019,0.0191,0.0256,0,0,0,0,0,0,0.0329,0.0329,0.0334,0.0316,0.0313,0.0315,0.0295,0.029,0.0284,0.0281,0.0255,0.0251,0.0232,0.0221,0.0217,0.0235,0.0205,0.0189,0.019,0.0191,0.0253,0.0259,0.0263,0,0,0,0,0,0.0329,0.0341,0.0335,0.0335,0.0322,0.0316,0.0312,0.0294,0.0284,0.0287,0.0268,0.0252,0.0224,0.0221,0.0216,0.0234,0.0189,0.019,0.0191,0.0251,0.0257,0.0263,0,0,0,0,0,0,0.034,0.0338,0.0332,0.0341,0.0333,0.0311,0.031,0.0299,0.0285,0.0281,0.0256,0.025,0.025,0.023,0.0227,0.023,0.0205,0.0205,0.0252,0.0258,0.0263,0.0286,0.0204,0,0,0,0,0,0.0347,0.0357,0.0347,0.0353,0.0351,0.0332,0.0326,0.0315,0.03,0.0294,0.0277,0.0259,0.025,0.0245,0.023,0.0231,0.0226,0.0239,0.0244,0.0249,0.0264,0.0281,0.029,0.0195,0.0195,0.0195,0,0,0.0351,0.0352,0.0356,0.0357,0.0346,0.0356,0.0328,0.0324,0.0335,0.0292,0.0298,0.0275,0.0253,0.0256,0.0254,0.0243,0.027,0.025,0.0254,0.0267,0.0283,0.0292,0.0301,0.0195,0.0195,0.0195,0,0,0.0371,0.0368,0.0385,0.0385,0.0379,0.037,0.0374,0.0358,0.0354,0.0354,0.033,0.0322,0.0301,0.0296,0.029,0.0315,0.0296,0.0303,0.0351,0.0367,0.0376,0.0383,0.0378,0.0385,0.0307,0.0308,0.0308,0,0.0375,0.0401,0.0387,0.0405,0.0415,0.0384,0.0408,0.0398,0.0382,0.0395,0.0365,0.0357,0.0327,0.0352,0.035,0.033,0.0326,0.0332,0.0377,0.0384,0.039,0.0383,0.039,0.0311,0.031,0.031,0.031,0,0.0411,0.0431,0.044,0.046,0.0467,0.0479,0.0472,0.0475,0.0464,0.0462,0.0477,0.0437,0.044,0.0421,0.0387,0.0421,0.0398,0.0382,0.0366,0.0404,0.0393,0.0399,0.0316,0.0314,0.0313,0.0313,0,0,0.0427,0.0461,0.0465,0.0497,0.0501,0.0518,0.0536,0.056,0.0597,0.0564,0.0615,0.0572,0.0554,0.0545,0.0506,0.0505,0.0525,0.046,0.0459,0.0464,0.0549,0.0511,0.0513,0.0519,0.052,0.0522,0.0519,0,0.0462,0.0519,0.0524,0.0583,0.0617,0.0609,0.064,0.0655,0.0661,0.0697,0.0664,0.069,0.0602,0.0611,0.0592,0.0558,0.0545,0.0527,0.0503,0.0502,0.0473,0.0521,0.0521,0.0517,0.0524,0.0525,0.0526,0,0.0499,0.0541,0.0605,0.0674,0.0689,0.0717,0.0782,0.0808,0.0838,0.0845,0.0853,0.083,0.0827,0.0746,0.0703,0.0697,0.0623,0.058,0.0579,0.053,0.0477,0.0481,0.0527,0.0408,0.0534,0.0533,0.0533,0,0.0537,0.0602,0.0664,0.0683,0.0745,0.078,0.0815,0.0856,0.0912,0.0952,0.1003,0.0976,0.0998,0.091,0.0796,0.076,0.0747,0.0692,0.0586,0.0581,0.0571,0.0563,0.051,0.0657,0.0657,0.0657,0.0657,0,0.0582,0.0633,0.069,0.0726,0.082,0.0842,0.0943,0.0969,0.1039,0.1143,0.109,0.117,0.1042,0.1011,0.0867,0.0757,0.0805,0.0611,0.059,0.0589,0.0584,0.0469,0.0387,0.0657,0.0657,0.0657,0.0657,0,0.0616,0.0644,0.0728,0.0808,0.084,0.0911,0.1027,0.1107,0.1158,0.1294,0.1321,0.1341,0.1314,0.1162,0.1046,0.0878,0.0684,0.0694,0.0688,0.0666,0.0434,0.0355,0.0279,0.0228,0.0584,0.0583,0.0582,0,0.064,0.0684,0.079,0.0853,0.0893,0.0999,0.1081,0.1156,0.1256,0.1415,0.1497,0.1518,0.1563,0.1365,0.1088,0.0848,0.07,0.0654,0.0575,0.0439,0.0336,0.0283,0.0243,0.058,0.0579,0.0579,0.0578,0,0.0698,0.0728,0.0803,0.0923,0.1018,0.1141,0.1266,0.1363,0.1486,0.1624,0.1797,0.1854,0.1676,0.146,0.1108,0.0921,0.0569,0.0634,0.0514,0.035,0.0272,0.0209,0.0543,0.0574,0.0574,0.0575,0.0575,0.0575,0.0742,0.0804,0.0893,0.1012,0.1124,0.1271,0.1392,0.1551,0.1744,0.1978,0.201,0.2131,0.1778,0.1321,0.105,0.0544,0.0544,0.0377,0.0299,0.0264,0.0198,0.0507,0.0498,0.0498,0.0498,0.0498,0.0498,0,0.0801,0.0869,0.098,0.1123,0.1251,0.1303,0.1512,0.1658,0.1911,0.2124,0.229,0.2167,0.175,0.1281,0.0595,0.0267,0.0153,0.0095,0.0027,0.0006,0.0308,0.029,0.0212,0.0212,0.0212,0.0212,0.0212,0.0212,0.0837,0.094,0.0994,0.1199,0.131,0.1502,0.1632,0.1863,0.2048,0.2308,0.238,0.2398,0.2004,0.0866,0.0145,-0.0007,-0.0205,-0.0273,-0.0357,-0.0159,-0.0138,-0.0119,-0.0153,-0.0323,-0.0324,-0.0608,-0.0611,-0.0613]}],[{"header":{"parameterUnit":"m.s-1","parameterCategory":2,"la1":30.2991,"la2":30.254,"lo1":-89.0895,"lo2":-89.0444,"dy":0.0017,"dx":0.0017,"nx":28,"ny":28,"refTime":"2025-08-21T03:00:00:Z","depth":"2","parameterNumber":2,"parameterNumberName":"U-component_of_CURRENTS"},"data":[0,0,0,0,0,0,0,0,0,0,0,0,0,0,0,0,0,0,0,0,0,0,0,0,0,0,0,0,0,0,0,0,0,0,0,0,0,0,0,0,0,0,0,0,0,0,0,0,0,0,0,0,0,0,0,0,0,0,0.2588,0.2589,0,0.2585,0.2585,0.2585,0.2575,0.2575,0.2575,0.2575,0.2575,0.2575,0.2575,0,0,0,0,0,0,0,0,0,0,0,0,0,0.2593,0.2593,0.2588,0.2589,0.2589,0.2585,0.2585,0.2585,0.2575,0.2575,0.2575,0.2575,0.2575,0.2575,0.2575,0,0,0,0,0,0,0,0,0,0,0,0,0,0.2589,0.2593,0.2588,0.2585,0.2585,0.2585,0.2585,0.2585,0.2575,0.2575,0.2575,0.2575,0.2575,0.2575,0.2575,0.2577,0,0,0.2575,0.2575,0,0,0,0,0,0,0,0,0.2589,0.2589,0.2585,0.2585,0.2585,0.2582,0.2587,0.2583,0.2575,0.2577,0.2575,0.2575,0.2579,0.2579,0.2576,0.2577,0.2577,0.2575,0.2575,0.2575,0.2575,0,0,0,0,0,0,0,0.2589,0.2589,0.2585,0.2585,0.2585,0.2586,0.2585,0.2586,0.2577,0.2577,0.2577,0.2579,0.2578,0.2576,0.2576,0.2577,0.2575,0.2575,0.2575,0.2575,0.2632,0.2634,0,0,0,0,0,0,0.2593,0.2589,0.2586,0.2586,0.2589,0.2586,0.2585,0.2582,0.2577,0.2577,0.2579,0.2579,0.2576,0.2576,0.2576,0.2627,0.2575,0.2575,0.2575,0.2631,0.2633,0.2634,0,0,0,0,0,0,0.2593,0.2593,0.2586,0.2589,0.2588,0.2586,0.2583,0.2582,0.2589,0.2579,0.2578,0.2589,0.2575,0.2575,0.2593,0.2625,0.2575,0.2575,0.2629,0.2631,0.2633,0.2699,0,0,0,0,0,0,0.2593,0.2592,0.2597,0.2589,0.2588,0.2595,0.2583,0.2582,0.2591,0.2591,0.2587,0.2586,0.2575,0.2593,0.2593,0.2624,0.2575,0.2627,0.263,0.2633,0.2695,0.2703,0.271,0,0,0,0,0,0.2593,0.2597,0.2597,0.2597,0.2592,0.2595,0.2595,0.2592,0.2592,0.2598,0.2602,0.2587,0.2611,0.2594,0.2594,0.2626,0.2626,0.2629,0.2633,0.2691,0.2701,0.271,0,0,0,0,0,0,0.2602,0.2596,0.2596,0.2598,0.2602,0.2594,0.2602,0.2601,0.2608,0.2613,0.2601,0.2601,0.2632,0.2619,0.2601,0.2652,0.2618,0.2621,0.2663,0.2672,0.268,0.2695,0.2576,0,0,0,0,0,0.2606,0.2607,0.2605,0.2609,0.2613,0.2611,0.2614,0.2615,0.2618,0.262,0.2618,0.2625,0.2644,0.2649,0.2656,0.2678,0.2701,0.2701,0.2709,0.2715,0.2728,0.2815,0.2832,0.2645,0.2645,0.2645,0,0,0.261,0.261,0.261,0.2612,0.2614,0.2627,0.2612,0.2624,0.2642,0.262,0.2644,0.2651,0.2656,0.2687,0.2699,0.268,0.2776,0.272,0.2725,0.2735,0.2821,0.2839,0.2856,0.2647,0.2647,0.2647,0,0,0.2619,0.262,0.2625,0.2631,0.2641,0.2646,0.2654,0.2656,0.2665,0.2691,0.2688,0.2717,0.2728,0.2745,0.2755,0.2809,0.2816,0.2809,0.2858,0.2942,0.2959,0.2974,0.301,0.3028,0.2811,0.2811,0.2811,0,0.2628,0.263,0.2629,0.264,0.2649,0.2659,0.2673,0.2688,0.2698,0.2719,0.2709,0.2768,0.2763,0.2821,0.2837,0.2828,0.2864,0.2822,0.2955,0.297,0.2984,0.3018,0.3036,0.2814,0.2814,0.2814,0.2813,0,0.2637,0.2647,0.2653,0.267,0.2684,0.2698,0.2718,0.2741,0.276,0.2781,0.2842,0.2851,0.2891,0.2894,0.2881,0.2976,0.2963,0.2958,0.2934,0.3007,0.3037,0.3055,0.282,0.2818,0.2817,0.2816,0,0,0.2632,0.2654,0.2657,0.2667,0.27,0.2707,0.2756,0.2798,0.2847,0.2874,0.2942,0.2974,0.2994,0.3007,0.3004,0.3065,0.318,0.3056,0.3059,0.3095,0.3349,0.3226,0.3234,0.3211,0.3215,0.3218,0.3323,0,0.264,0.266,0.2674,0.2703,0.2715,0.2746,0.2793,0.2839,0.2891,0.2961,0.3003,0.3069,0.3034,0.3071,0.3129,0.3171,0.3235,0.315,0.3269,0.3271,0.3158,0.3254,0.2981,0.3043,0.3341,0.3344,0.3346,0,0.2635,0.2654,0.2675,0.2719,0.273,0.2759,0.284,0.2885,0.2992,0.3039,0.3122,0.3164,0.325,0.3221,0.3346,0.3299,0.3335,0.3362,0.3367,0.3245,0.3184,0.3021,0.3065,0.3376,0.3374,0.3372,0.337,0,0.261,0.2649,0.2665,0.2676,0.2735,0.2764,0.2814,0.2912,0.2975,0.3108,0.3187,0.3282,0.3353,0.3426,0.3459,0.3433,0.3593,0.3563,0.3486,0.3476,0.3261,0.3225,0.3681,0.3681,0.368,0.368,0.368,0,0.2596,0.2608,0.2657,0.2662,0.2715,0.2759,0.284,0.2913,0.3039,0.3129,0.3233,0.3317,0.342,0.3506,0.3522,0.355,0.3651,0.3517,0.3513,0.327,0.3236,0.3535,0.3516,0.3684,0.3683,0.3682,0.3682,0,0.2552,0.258,0.2602,0.2666,0.2698,0.2735,0.2853,0.2914,0.3049,0.3179,0.3234,0.3385,0.349,0.3563,0.3676,0.3624,0.3664,0.365,0.3328,0.3284,0.3472,0.3456,0.3589,0.3586,0.3583,0.3581,0.3579,0,0.2525,0.253,0.2596,0.262,0.265,0.2721,0.2776,0.2907,0.2986,0.3194,0.3255,0.3414,0.347,0.3575,0.3544,0.3563,0.3643,0.3301,0.3196,0.3489,0.3473,0.3461,0.3448,0.2935,0.2928,0.2922,0.2917,0,0.2482,0.2504,0.2529,0.2582,0.263,0.2681,0.2779,0.2832,0.2987,0.3093,0.3204,0.3266,0.3379,0.3257,0.329,0.3254,0.3269,0.3184,0.3624,0.2986,0.2878,0.2859,0.2868,0.2867,0.2872,0.2876,0.2878,0.288,0.2449,0.2463,0.2498,0.2539,0.2586,0.2612,0.2613,0.2704,0.2779,0.2877,0.3022,0.3021,0.3054,0.2953,0.2859,0.2791,0.302,0.287,0.2887,0.2909,0.2801,0.2693,0.2625,0.2629,0.2632,0.2634,0.2637,0,0.2406,0.2436,0.2457,0.248,0.2468,0.2535,0.2588,0.2534,0.2536,0.2656,0.2705,0.2492,0.2426,0.2472,0.2294,0.2275,0.224,0.2171,0.211,0.2163,0.221,0.2063,0.1693,0.169,0.1687,0.1684,0,0,0.2385,0.2381,0.2384,0.2347,0.2359,0.2295,0.2284,0.2225,0.2254,0.218,0.2174,0.235,0.2424,0.2046,0.1983,0.1812,0.1971,0.1732,0.2498,0.2482,0.2525,0.2629,0.2466,0,0,0,0,0]},{"header":{"parameterUnit":"m.s-1","parameterCategory":2,"la1":30.2991,"la2":30.254,"lo1":-89.0895,"lo2":-89.0444,"dy":0.0017,"dx":0.0017,"nx":28,"ny":28,"refTime":"2025-08-21T03:00:00:Z","depth":"2","parameterNumber":3,"parameterNumberName":"V-component_of_CURRENTS"},"data":[0,0,0,0,0,0,0,0,0,0,0,0,0,0,0,0,0,0,0,0,0,0,0,0,0,0,0,0,0,0,0,0,0,0,0,0,0,0,0,0,0,0,0,0,0,0,0,0,0,0,0,0,0,0,0,0,0,0,0.0213,0.0212,0,0.0176,0.0175,0.0175,0.015,0.015,0.015,0.015,0.0112,0.0111,0.011,0,0,0,0,0,0,0,0,0,0,0,0,0,0.0216,0.0216,0.0213,0.0212,0.0212,0.0176,0.0175,0.0175,0.0151,0.015,0.015,0.015,0.0113,0.0111,0.011,0,0,0,0,0,0,0,0,0,0,0,0,0,0.02,0.0216,0.0213,0.0196,0.0194,0.0176,0.0175,0.0174,0.0151,0.015,0.015,0.015,0.0113,0.0112,0.011,0.0104,0,0,0.0106,0.0105,0,0,0,0,0,0,0,0,0.0201,0.02,0.0199,0.0197,0.0195,0.0168,0.0162,0.0151,0.0151,0.0166,0.015,0.015,0.0131,0.0129,0.0121,0.0102,0.01,0.0106,0.0105,0.0104,0.0104,0,0,0,0,0,0,0,0.0202,0.0201,0.0197,0.0199,0.0196,0.0175,0.0172,0.016,0.0149,0.0165,0.0163,0.016,0.013,0.0122,0.012,0.01,0.0106,0.0105,0.0104,0.0103,0.0085,0.0085,0,0,0,0,0,0,0.0211,0.0202,0.0198,0.0196,0.0199,0.0175,0.0172,0.0176,0.015,0.0146,0.0161,0.016,0.0125,0.0121,0.0118,0.0129,0.0104,0.0103,0.0102,0.0085,0.0085,0.0085,0,0,0,0,0,0,0.0211,0.0211,0.02,0.0198,0.0196,0.0175,0.018,0.0176,0.0171,0.0146,0.0142,0.0161,0.0124,0.012,0.0112,0.0127,0.0102,0.0101,0.0084,0.0085,0.0085,0.0139,0,0,0,0,0,0,0.0212,0.0212,0.0217,0.0199,0.0196,0.0197,0.018,0.0175,0.017,0.0168,0.0145,0.0141,0.0124,0.0115,0.0111,0.0124,0.01,0.0084,0.0084,0.0085,0.0136,0.0141,0.0145,0,0,0,0,0,0.0212,0.0222,0.0217,0.0217,0.0204,0.0198,0.0194,0.0178,0.017,0.0172,0.0156,0.0142,0.0116,0.0114,0.0109,0.0123,0.0083,0.0084,0.0085,0.0134,0.014,0.0145,0,0,0,0,0,0,0.0222,0.022,0.0215,0.0222,0.0214,0.0194,0.0193,0.0183,0.0171,0.0168,0.0145,0.014,0.0138,0.0122,0.012,0.0119,0.0098,0.0098,0.0137,0.0142,0.0146,0.0163,0.0099,0,0,0,0,0,0.0228,0.0237,0.0227,0.0232,0.0231,0.0213,0.0208,0.0198,0.0184,0.0179,0.0164,0.0148,0.0137,0.0133,0.0119,0.0119,0.0104,0.0125,0.0129,0.0133,0.0143,0.0135,0.0139,0.0088,0.0088,0.0088,0,0,0.0231,0.0232,0.0236,0.0235,0.0226,0.0234,0.0209,0.0205,0.0214,0.0177,0.0183,0.0161,0.014,0.014,0.0138,0.0129,0.0137,0.0134,0.0137,0.0146,0.0136,0.0141,0.0146,0.0089,0.0089,0.0088,0,0,0.0248,0.0246,0.0261,0.0261,0.0255,0.0247,0.025,0.0236,0.0232,0.0232,0.0208,0.0197,0.0181,0.017,0.0163,0.0182,0.0157,0.0176,0.0214,0.0206,0.021,0.0214,0.0193,0.0195,0.018,0.018,0.0181,0,0.0251,0.0274,0.0262,0.0277,0.0285,0.0259,0.0279,0.0271,0.0256,0.0263,0.0242,0.0224,0.0198,0.0208,0.0209,0.0193,0.018,0.0198,0.0213,0.0216,0.0219,0.0196,0.0197,0.0183,0.0183,0.0183,0.0182,0,0.0282,0.03,0.0308,0.0325,0.033,0.0341,0.0334,0.0336,0.0326,0.0321,0.0323,0.0285,0.0278,0.0265,0.0241,0.0253,0.0233,0.0218,0.0203,0.0228,0.0202,0.0202,0.0187,0.0186,0.0185,0.0185,0,0,0.0294,0.0325,0.0329,0.0355,0.036,0.0372,0.0387,0.0402,0.0428,0.0398,0.0427,0.0389,0.0365,0.0355,0.0321,0.0309,0.0303,0.0275,0.0273,0.026,0.0279,0.0241,0.0237,0.0294,0.0294,0.0294,0.025,0,0.0324,0.0374,0.0378,0.0426,0.0455,0.0446,0.0472,0.048,0.0481,0.05,0.0458,0.047,0.0402,0.0404,0.0376,0.033,0.0308,0.0317,0.0252,0.025,0.0219,0.0237,0.0257,0.0217,0.0249,0.0249,0.0249,0,0.0356,0.0392,0.0446,0.0501,0.0512,0.0534,0.0582,0.0603,0.0614,0.0617,0.0605,0.0575,0.0548,0.049,0.0413,0.0423,0.0354,0.0308,0.0305,0.0255,0.0213,0.0199,0.0216,0.0249,0.0249,0.0249,0.0249,0,0.0387,0.0441,0.0492,0.0508,0.0559,0.0584,0.0612,0.0639,0.0686,0.0698,0.0734,0.0677,0.0671,0.0578,0.0457,0.0444,0.037,0.0342,0.024,0.0236,0.0232,0.0227,0.0289,0.0289,0.0289,0.029,0.029,0,0.0425,0.0467,0.0513,0.0544,0.0621,0.0635,0.0717,0.0734,0.0786,0.0866,0.0801,0.0842,0.0696,0.0629,0.0499,0.0367,0.0397,0.0253,0.0227,0.0249,0.0246,0.0259,0.0256,0.0288,0.0288,0.0289,0.0289,0,0.0454,0.0479,0.0547,0.061,0.0638,0.0695,0.0796,0.0865,0.0897,0.0999,0.1014,0.0975,0.0893,0.0729,0.0582,0.044,0.0309,0.025,0.0274,0.0252,0.0167,0.0168,0.0144,0.0143,0.0141,0.014,0.0139,0,0.0474,0.051,0.0598,0.0655,0.0688,0.0778,0.0856,0.0916,0.1006,0.1092,0.1156,0.1099,0.1075,0.0821,0.0576,0.0343,0.0308,0.019,0.0164,0.0178,0.0155,0.0158,0.016,0.0177,0.0176,0.0176,0.0175,0,0.0519,0.0543,0.0606,0.0721,0.0809,0.0921,0.1036,0.1124,0.1218,0.1299,0.1382,0.1361,0.1131,0.0893,0.0555,0.0392,0.0225,0.0172,0.0199,0.0206,0.0203,0.0183,0.0185,0.0171,0.0172,0.0172,0.0172,0.0172,0.0552,0.0607,0.0689,0.0801,0.0908,0.1053,0.1159,0.1289,0.1431,0.1557,0.153,0.1501,0.1221,0.0795,0.0506,0.02,0.0222,0.01,0.0104,0.0108,0.0115,0.011,0.0061,0.0061,0.0061,0.006,0.006,0,0.0606,0.0672,0.0771,0.0908,0.1031,0.1083,0.1277,0.1381,0.1551,0.1643,0.169,0.1414,0.115,0.0833,0.039,0.0115,0.0099,0.0016,0.0064,0.007,0.0075,0.0082,0.0018,0.0017,0.0016,0.0015,0,0,0.0638,0.0738,0.0788,0.0985,0.109,0.1266,0.1382,0.1524,0.1623,0.1691,0.1677,0.162,0.1243,0.0907,0.054,0.0286,0.0237,0.0226,0.029,0.0396,0.0404,0.0152,0.0173,0,0,0,0,0]}],[{"header":{"parameterUnit":"m.s-1","parameterCategory":2,"la1":30.2991,"la2":30.254,"lo1":-89.0895,"lo2":-89.0444,"dy":0.0017,"dx":0.0017,"nx":28,"ny":28,"refTime":"2025-08-21T03:00:00:Z","depth":"4","parameterNumber":2,"parameterNumberName":"U-component_of_CURRENTS"},"data":[0,0,0,0,0,0,0,0,0,0,0,0,0,0,0,0,0,0,0,0,0,0,0,0,0,0,0,0,0,0,0,0,0,0,0,0,0,0,0,0,0,0,0,0,0,0,0,0,0,0,0,0,0,0,0,0,0,0,0.1667,0.1668,0,0.1709,0.171,0.171,0.1756,0.1756,0.1757,0.1758,0.1809,0.1809,0.181,0,0,0,0,0,0,0,0,0,0,0,0,0,0.1617,0.1618,0.1667,0.1668,0.1668,0.1709,0.171,0.171,0.1755,0.1756,0.1757,0.1758,0.1809,0.1809,0.181,0,0,0,0,0,0,0,0,0,0,0,0,0,0.1645,0.1618,0.1667,0.1697,0.1701,0.1709,0.171,0.171,0.1755,0.1756,0.1758,0.1759,0.1808,0.1809,0.181,0.1791,0,0,0.1813,0.1813,0,0,0,0,0,0,0,0,0.1644,0.1647,0.1692,0.1695,0.1699,0.173,0.1711,0.1738,0.1755,0.1732,0.1758,0.1759,0.1784,0.1787,0.1789,0.1793,0.1795,0.1813,0.1813,0.1814,0.1814,0,0,0,0,0,0,0,0.1642,0.1645,0.1682,0.1693,0.1697,0.1706,0.1711,0.1716,0.1749,0.1734,0.1738,0.1746,0.1786,0.1788,0.1791,0.1796,0.1813,0.1814,0.1814,0.1815,0.1891,0.1893,0,0,0,0,0,0,0.1639,0.1643,0.1681,0.1683,0.1676,0.1706,0.1712,0.1717,0.1749,0.1756,0.1745,0.1748,0.1786,0.1789,0.1793,0.1867,0.1814,0.1815,0.1815,0.189,0.1891,0.1893,0,0,0,0,0,0,0.1638,0.1642,0.1679,0.1666,0.1672,0.1706,0.1711,0.1718,0.1757,0.1757,0.1764,0.1783,0.1787,0.1791,0.1832,0.1865,0.1815,0.1816,0.1888,0.189,0.1892,0.1954,0,0,0,0,0,0,0.1636,0.1641,0.1662,0.1666,0.1672,0.1706,0.1711,0.1718,0.1759,0.1764,0.1791,0.1795,0.1788,0.1831,0.1833,0.1866,0.1817,0.1886,0.1889,0.1892,0.195,0.1958,0.1965,0,0,0,0,0,0.1634,0.165,0.1663,0.1669,0.1694,0.1707,0.1712,0.1739,0.176,0.1779,0.1805,0.1796,0.1851,0.1833,0.1835,0.1869,0.1885,0.1888,0.1891,0.1946,0.1956,0.1964,0,0,0,0,0,0,0.1641,0.1656,0.1671,0.1692,0.1711,0.1717,0.1744,0.1759,0.1794,0.1813,0.1813,0.1818,0.1867,0.1859,0.184,0.19,0.1867,0.1871,0.1908,0.1917,0.1925,0.1918,0.1817,0,0,0,0,0,0.1651,0.1671,0.1683,0.1706,0.1719,0.1739,0.1757,0.1774,0.1796,0.1815,0.1834,0.1856,0.1874,0.1892,0.1904,0.1934,0.1936,0.1958,0.1966,0.1972,0.1968,0.2015,0.2026,0.1904,0.1904,0.1904,0,0,0.1661,0.1674,0.1687,0.1711,0.173,0.1749,0.1754,0.179,0.1815,0.1813,0.1868,0.1885,0.1889,0.1927,0.1948,0.193,0.2008,0.1976,0.1982,0.1974,0.202,0.2031,0.2042,0.1907,0.1906,0.1906,0,0,0.1677,0.1704,0.1723,0.1741,0.1777,0.1784,0.1803,0.1831,0.1859,0.1904,0.1912,0.195,0.1982,0.1989,0.1994,0.2049,0.2047,0.2063,0.2095,0.2141,0.2151,0.216,0.2179,0.2189,0.2066,0.2066,0.2066,0,0.1694,0.1712,0.1732,0.1754,0.1771,0.1804,0.1823,0.1852,0.1894,0.1919,0.1935,0.1998,0.2007,0.2041,0.2064,0.2066,0.2087,0.206,0.215,0.2159,0.2168,0.2185,0.2195,0.2069,0.2069,0.2068,0.2068,0,0.1709,0.1739,0.1754,0.1788,0.181,0.1836,0.1867,0.1908,0.195,0.1978,0.2044,0.2063,0.21,0.2112,0.2106,0.2167,0.2161,0.2156,0.2127,0.2184,0.2198,0.2208,0.2074,0.2073,0.2072,0.2071,0,0,0.1698,0.1753,0.1763,0.178,0.1831,0.1842,0.1895,0.1937,0.1978,0.204,0.2093,0.2136,0.2166,0.2174,0.2181,0.2216,0.2293,0.2218,0.2219,0.2234,0.239,0.2246,0.2243,0.2317,0.2319,0.2321,0.2377,0,0.1705,0.174,0.177,0.1809,0.1822,0.1869,0.1908,0.196,0.2016,0.2079,0.2126,0.2186,0.2185,0.2219,0.2258,0.2289,0.2322,0.2277,0.2334,0.2335,0.2198,0.225,0.2328,0.2384,0.2386,0.2388,0.2389,0,0.1699,0.1722,0.1758,0.1806,0.182,0.1854,0.1918,0.1965,0.2058,0.2109,0.2184,0.223,0.2301,0.2293,0.238,0.236,0.2381,0.2395,0.2398,0.2244,0.2208,0.2315,0.2406,0.2405,0.2404,0.2402,0.2401,0,0.165,0.1708,0.1736,0.1754,0.1818,0.1852,0.1897,0.198,0.2028,0.2145,0.2204,0.2288,0.2356,0.2401,0.2451,0.2432,0.2536,0.251,0.2392,0.2382,0.2468,0.2458,0.2565,0.2565,0.2564,0.2564,0.2564,0,0.1617,0.1643,0.1722,0.1733,0.1767,0.1833,0.1893,0.1953,0.2056,0.2117,0.2229,0.2283,0.2396,0.2468,0.2482,0.2471,0.2571,0.2398,0.239,0.2492,0.2484,0.2475,0.2464,0.2566,0.2566,0.2565,0.2565,0,0.1551,0.1611,0.164,0.1717,0.1745,0.1775,0.1878,0.1917,0.204,0.2127,0.2175,0.2317,0.2408,0.2489,0.257,0.2503,0.2506,0.2476,0.2584,0.2581,0.2308,0.2299,0.2329,0.2324,0.2321,0.2317,0.2315,0,0.1515,0.1528,0.1612,0.163,0.167,0.1732,0.1771,0.1893,0.194,0.212,0.2147,0.2295,0.2373,0.2376,0.2465,0.2483,0.2456,0.2431,0.235,0.2296,0.2286,0.2284,0.2281,0.2308,0.2307,0.2306,0.2305,0,0.1431,0.1482,0.1501,0.1544,0.1588,0.1626,0.1699,0.1719,0.1868,0.2005,0.2071,0.2123,0.2224,0.2281,0.2329,0.2331,0.2428,0.239,0.2396,0.232,0.2271,0.2265,0.2266,0.2292,0.2294,0.2295,0.2296,0,0.1369,0.1361,0.1404,0.143,0.1483,0.1494,0.1547,0.1605,0.1672,0.1875,0.1893,0.2056,0.2201,0.2204,0.224,0.2243,0.2194,0.2102,0.2122,0.2138,0.205,0.1958,0.1877,0,0,0,0,0,0.1294,0.1277,0.1285,0.1298,0.1351,0.1386,0.1483,0.1548,0.1701,0.17,0.179,0.1873,0.1939,0.2021,0.1985,0.2141,0.2196,0.2087,0.2097,0.2218,0.2233,0.2147,0,0,0,0,0,0,0.1239,0.1244,0.1239,0.1191,0.1184,0.1224,0.1282,0.1385,0.1394,0.1566,0.162,0.1751,0.1851,0.1947,0.1949,0.1972,0.1935,0.219,0.2185,0.2209,0.2223,0.2236,0.2152,0,0,0,0,0]},{"header":{"parameterUnit":"m.s-1","parameterCategory":2,"la1":30.2991,"la2":30.254,"lo1":-89.0895,"lo2":-89.0444,"dy":0.0017,"dx":0.0017,"nx":28,"ny":28,"refTime":"2025-08-21T03:00:00:Z","depth":"4","parameterNumber":3,"parameterNumberName":"V-component_of_CURRENTS"},"data":[0,0,0,0,0,0,0,0,0,0,0,0,0,0,0,0,0,0,0,0,0,0,0,0,0,0,0,0,0,0,0,0,0,0,0,0,0,0,0,0,0,0,0,0,0,0,0,0,0,0,0,0,0,0,0,0,0,0,0.0147,0.0147,0,0.0123,0.0122,0.0122,0.0108,0.0108,0.0108,0.0108,0.0084,0.0083,0.0082,0,0,0,0,0,0,0,0,0,0,0,0,0,0.0148,0.0148,0.0147,0.0147,0.0146,0.0123,0.0122,0.0122,0.0108,0.0108,0.0108,0.0108,0.0084,0.0083,0.0082,0,0,0,0,0,0,0,0,0,0,0,0,0,0.0138,0.0149,0.0147,0.0137,0.0136,0.0123,0.0122,0.0122,0.0108,0.0108,0.0108,0.0108,0.0084,0.0083,0.0082,0.0076,0,0,0.0079,0.0079,0,0,0,0,0,0,0,0,0.0139,0.0138,0.0139,0.0138,0.0136,0.0119,0.0114,0.0107,0.0108,0.0118,0.0108,0.0108,0.0096,0.0094,0.0089,0.0075,0.0074,0.0079,0.0078,0.0078,0.0078,0,0,0,0,0,0,0,0.0139,0.0139,0.0137,0.0138,0.0137,0.0122,0.0121,0.0112,0.0107,0.0117,0.0116,0.0114,0.0095,0.009,0.0088,0.0074,0.0079,0.0078,0.0078,0.0077,0.0067,0.0067,0,0,0,0,0,0,0.0145,0.014,0.0138,0.0136,0.0138,0.0123,0.0121,0.0124,0.0107,0.0105,0.0114,0.0114,0.0091,0.0089,0.0087,0.0098,0.0078,0.0077,0.0077,0.0067,0.0067,0.0067,0,0,0,0,0,0,0.0145,0.0145,0.0139,0.0137,0.0135,0.0123,0.0126,0.0124,0.0123,0.0105,0.0102,0.0116,0.0091,0.0088,0.0084,0.0096,0.0077,0.0076,0.0066,0.0067,0.0067,0.0108,0,0,0,0,0,0,0.0145,0.0146,0.015,0.0138,0.0136,0.0138,0.0126,0.0123,0.0121,0.012,0.0106,0.0103,0.0091,0.0086,0.0083,0.0095,0.0075,0.0066,0.0066,0.0067,0.0106,0.011,0.0113,0,0,0,0,0,0.0146,0.0153,0.0151,0.0151,0.0143,0.0138,0.0136,0.0126,0.0122,0.0124,0.0114,0.0104,0.0088,0.0085,0.0082,0.0094,0.0066,0.0066,0.0067,0.0105,0.0109,0.0113,0,0,0,0,0,0,0.0153,0.0152,0.0149,0.0155,0.0151,0.0136,0.0137,0.013,0.0124,0.0123,0.0107,0.0103,0.0103,0.0092,0.009,0.0092,0.0075,0.0076,0.0105,0.0109,0.0112,0.0124,0.0074,0,0,0,0,0,0.0158,0.0165,0.0159,0.0163,0.0162,0.0151,0.0148,0.0142,0.0133,0.013,0.0121,0.011,0.0103,0.0101,0.0091,0.0093,0.0071,0.0098,0.0101,0.0104,0.0111,0.0086,0.0088,0.007,0.007,0.007,0,0,0.0161,0.0162,0.0165,0.0166,0.016,0.0167,0.0149,0.0148,0.0156,0.0129,0.0136,0.012,0.0105,0.0107,0.0106,0.01,0.0097,0.0105,0.0108,0.0113,0.0087,0.0089,0.009,0.007,0.007,0.007,0,0,0.0173,0.0174,0.0185,0.0186,0.0183,0.0178,0.0181,0.0172,0.0171,0.0173,0.0156,0.0147,0.0138,0.013,0.0125,0.014,0.0113,0.0137,0.0167,0.0143,0.0144,0.0145,0.0115,0.0112,0.0142,0.0142,0.0142,0,0.0177,0.0194,0.0186,0.0198,0.0205,0.0188,0.0203,0.0199,0.019,0.0196,0.0182,0.0167,0.0151,0.0156,0.0161,0.0149,0.0127,0.0155,0.0148,0.0148,0.0148,0.0116,0.0114,0.0144,0.0144,0.0144,0.0144,0,0.0199,0.0214,0.022,0.0235,0.024,0.0249,0.0246,0.025,0.0245,0.0241,0.0241,0.0214,0.0209,0.02,0.0185,0.0184,0.0165,0.0152,0.0139,0.0153,0.0118,0.0114,0.0147,0.0146,0.0146,0.0145,0,0,0.0206,0.0232,0.0235,0.0256,0.0263,0.0273,0.0287,0.03,0.0319,0.0297,0.0315,0.0291,0.0273,0.0266,0.0242,0.022,0.0196,0.0191,0.0189,0.0163,0.0136,0.0119,0.0112,0.0181,0.0181,0.0181,0.0109,0,0.0227,0.0266,0.0271,0.031,0.0332,0.033,0.0352,0.036,0.0359,0.0369,0.0336,0.034,0.03,0.0299,0.0269,0.0217,0.019,0.0217,0.0125,0.0122,0.0107,0.0109,0.018,0.0106,0.0105,0.0105,0.0104,0,0.0249,0.0277,0.0321,0.0366,0.0375,0.0395,0.0434,0.0453,0.0457,0.0457,0.0443,0.0414,0.0382,0.0345,0.0257,0.0276,0.0213,0.0164,0.016,0.0129,0.0098,0.009,0.0097,0.0098,0.0098,0.0099,0.0099,0,0.0267,0.0312,0.0353,0.0367,0.0411,0.0434,0.046,0.0481,0.0516,0.0514,0.0529,0.0476,0.046,0.0372,0.0265,0.0263,0.016,0.0143,0.0065,0.0062,0.0081,0.0081,0.008,0.008,0.008,0.0081,0.0081,0,0.029,0.0325,0.0369,0.0393,0.0456,0.0473,0.0541,0.0553,0.0588,0.0632,0.0581,0.0588,0.0466,0.039,0.0283,0.0161,0.017,0.0071,0.0045,0.0098,0.0101,0.0077,0.0078,0.0078,0.0078,0.0079,0.0079,0,0.0305,0.033,0.0386,0.0442,0.0467,0.0516,0.0604,0.0656,0.0673,0.0725,0.0727,0.0674,0.0575,0.0441,0.0295,0.0196,0.0074,0.0027,0.0092,0.0071,-0.0014,-0.001,-0.0063,-0.0064,-0.0065,-0.0066,-0.0067,0,0.0316,0.0344,0.0423,0.0471,0.0502,0.0583,0.0648,0.0696,0.0754,0.0776,0.08,0.0723,0.0664,0.045,0.0298,0.0087,0.0056,-0.0018,-0.0015,-0.0008,-0.0027,-0.0022,-0.0017,-0.0068,-0.0069,-0.0069,-0.0069,0,0.0341,0.0367,0.0418,0.0514,0.0589,0.0684,0.077,0.0814,0.0868,0.088,0.0862,0.0748,0.0635,0.0458,0.0292,0.014,0.0023,-0.0029,-0.0028,-0.0026,-0.0015,-0.0032,-0.0026,-0.0073,-0.0072,-0.0072,-0.0072,0,0.0362,0.0402,0.047,0.0558,0.0654,0.0752,0.08,0.0864,0.0915,0.0924,0.0912,0.0784,0.071,0.0485,0.0332,0.0178,0.0138,0.0076,0.0071,0.0073,0.0128,0.0163,0.014,0,0,0,0,0,0.0385,0.0436,0.0514,0.0614,0.071,0.0769,0.0871,0.0913,0.0951,0.0947,0.0932,0.0823,0.06,0.0509,0.0355,0.0304,0.0104,0.0114,0.0029,-0.0091,-0.0088,-0.0048,0,0,0,0,0,0,0.0403,0.0475,0.0514,0.0643,0.0717,0.0833,0.0898,0.0928,0.093,0.0933,0.0827,0.0766,0.0561,0.0687,0.0346,0.03,0.0219,0.0015,0.001,-0.0094,-0.009,-0.0087,-0.0045,0,0,0,0,0]}]]